Location: Estes Par
(40.3770°N, 105.5210°W)
Time: 08:57:27
(UTC-07:00)

Vanguard 2 Rocket - All Passes

Search period start: 22 January 2018 00:00
Search period end: 01 February 2018 00:00
Orbit: 556 x 3326 km, 32.9° (Epoch: 21 January)

Date Brightness Start Highest point End Pass type
(mag) Time Alt. Az. Time Alt. Az. Time Alt. Az.
22 Jan - 04:38:19 10° S 04:48:33 20° SSE 04:56:11 10° ESE visible
22 Jan - 06:51:31 10° SW 07:03:32 38° SSE 07:10:47 10° E visible
22 Jan - 09:08:04 10° WSW 09:17:24 47° S 09:22:53 10° ESE daylight
22 Jan - 11:24:31 10° W 11:30:00 29° SSW 11:33:54 10° SE daylight
23 Jan - 03:39:32 10° S 03:48:00 16° SSE 03:54:57 10° ESE visible
23 Jan - 05:50:21 10° SW 06:03:23 34° SSE 06:11:40 10° E visible
23 Jan - 08:06:35 10° WSW 08:17:51 49° S 08:24:18 10° ESE daylight
23 Jan - 10:23:36 10° W 10:31:02 40° SSW 10:35:45 10° SE daylight
23 Jan - 12:41:00 10° WSW 12:42:52 12° SW 12:44:35 10° SSW daylight
24 Jan - 02:44:06 10° SSE 02:47:18 11° SE 02:50:20 10° SE visible
24 Jan - 04:49:32 10° SSW 05:02:58 29° SSE 05:12:08 10° E visible
24 Jan - 07:04:55 10° WSW 07:18:00 47° S 07:25:34 10° E daylight
24 Jan - 09:22:19 10° WSW 09:31:49 48° S 09:37:23 10° ESE daylight
24 Jan - 11:39:22 10° WSW 11:44:09 21° SSW 11:47:43 10° SSE daylight
25 Jan - 03:49:22 10° SSW 04:02:20 24° SSE 04:11:58 10° ESE visible
25 Jan - 06:03:17 10° SW 06:17:49 44° SSE 06:26:36 10° E visible
25 Jan - 08:20:40 10° WSW 08:32:18 53° S 08:38:52 10° ESE daylight
25 Jan - 10:38:09 10° W 10:45:17 33° SSW 10:49:55 10° SE daylight
26 Jan - 02:50:15 10° S 03:01:33 19° SE 03:10:48 10° ESE visible
26 Jan - 05:01:52 10° SW 05:17:20 39° SSE 05:27:19 10° E visible
26 Jan - 07:18:44 10° WSW 07:32:26 54° S 07:40:12 10° E daylight
26 Jan - 09:36:42 10° W 09:46:09 44° SSW 09:51:45 10° SE daylight
26 Jan - 11:54:48 10° WSW 11:58:05 14° SW 12:00:47 10° S daylight
27 Jan - 01:53:13 10° SSE 02:00:43 13° SE 02:07:29 10° ESE visible
27 Jan - 04:00:56 10° SSW 04:16:36 34° SSE 04:27:36 10° E visible
27 Jan - 06:16:45 10° WSW 06:32:14 53° S 06:41:19 10° E visible
27 Jan - 08:34:55 10° W 08:46:42 53° S 08:53:21 10° ESE daylight
27 Jan - 10:52:54 10° W 10:59:20 25° SSW 11:03:45 10° SSE daylight
28 Jan - 03:00:44 10° SSW 03:15:40 28° SSE 03:27:14 10° E visible
28 Jan - 05:14:54 10° SW 05:31:40 49° SSE 05:42:08 10° E visible
28 Jan - 07:32:49 10° WSW 07:46:51 58° S 07:54:44 10° ESE daylight
28 Jan - 09:51:12 10° W 10:00:20 37° SSW 10:05:54 10° SE daylight
29 Jan - 02:01:35 10° S 02:14:42 22° SE 02:25:52 10° E visible
29 Jan - 04:13:27 10° SW 04:30:50 44° SSE 04:42:37 10° E visible
29 Jan - 06:30:35 10° WSW 06:46:37 59° S 06:55:53 10° E visible
29 Jan - 08:49:16 10° W 09:00:59 49° SSW 09:07:42 10° SE daylight
29 Jan - 11:08:06 10° WSW 11:13:10 18° SW 11:16:58 10° S daylight
30 Jan - 01:04:14 10° SSE 01:13:48 15° SE 01:22:40 10° ESE visible
30 Jan - 03:12:35 10° SSW 03:29:45 38° SSE 03:42:37 10° E visible
30 Jan - 05:28:26 10° WSW 05:46:00 57° S 05:56:47 10° E visible
30 Jan - 07:47:03 10° W 08:01:12 57° S 08:09:10 10° ESE daylight
30 Jan - 10:05:52 10° W 10:14:19 29° SSW 10:19:44 10° SSE daylight
31 Jan - 02:12:32 10° SSW 02:28:37 31° SSE 02:41:57 10° E visible
31 Jan - 04:26:35 10° SW 04:45:03 53° SSE 04:57:21 10° E visible
31 Jan - 06:44:40 10° WSW 07:01:00 62° S 07:10:23 10° ESE visible
31 Jan - 09:03:42 10° W 09:15:06 42° SSW 09:21:49 10° SE daylight
31 Jan - 11:25:01 10° WSW 11:26:47 11° SW 11:28:23 10° SSW daylight
